カタログに戻る

THORAD AGENA D DEB

運用中PO
NORAD 4929·DEBRIS·🇺🇸 United States

打ち上げ Apr 8, 1970 から Vandenberg Space Force Base

Loading…

次のパス (今後24時間)

TLE

最新Source: Space-Track

元期: Sep 14, 2026, 21:48 UTC

1 04929U 70025FV  26257.90839315  .00000208  00000-0  88147-3 0  9999
2 04929  99.6763 235.3250 0447518 242.8564 140.9181 12.65774729595885

AllMySatでTHORAD AGENA D DEBをリアルタイム追跡

Download on the App Store